Location: Baix
(44.7118°N, 4.7648°E)
Time: 06:16:45
(UTC+00:00)

Vanguard 1 - Pass Details

Date: 01 December 2020
Orbit: 648 x 3834 km, 34.3° (Epoch: 21 January)

Event Time Altitude Azimuth Distance (km) Brightness Sun altitude
Rises 11:38:52 0° 264° (W) 5,707 14.1 23.3°
Reaches altitude 10° 11:45:29 10° 241° (WSW) 5,389 14.4 23.3°
Maximum altitude 11:51:59 13° 217° (SW) 5,654 15.1 23.2°
Drops below altitude 10° 11:59:38 10° 195° (SSW) 6,460 16.2 23.0°
Sets 12:09:58 0° 174° (S) 7,888 16.0 22.8°
